Location: Unspecified
(17.6330°N, 0.0000°E)
Time: 09:49:29
(UTC+00:00)

S-56A Canister/Altair - Pass Details

Date: 25 June 2019
Orbit: 632 x 2500 km, 38.9° (Epoch: 23 July)

Event Time Altitude Azimuth Distance (km) Brightness Sun altitude
Rises 18:08:04 0° 312° (NW) 4,336 13.0 5.7°
Reaches altitude 10° 18:14:03 10° 344° (NNW) 2,852 11.1 4.4°
Maximum altitude 18:16:00 11° 1° (N) 2,600 10.6 4.0°
Drops below altitude 10° 18:17:48 10° 19° (NNE) 2,552 10.3 3.6°
Sets 18:22:09 0° 55° (NE) 3,184 10.4 2.6°
